Location: �chenoz-la-M�line
(47.6009°N, 6.1354°E)
Time: 16:33:34
(UTC+00:00)

Cosmos 1603 - Pass Details

Date: 27 January 2021
Orbit: 829 x 861 km, 71.0° (Epoch: 04 March)

Event Time Altitude Azimuth Distance (km) Brightness Sun altitude
Rises 06:13:44 0° 202° (SSW) 3,362 6.8 -9.3°
Reaches altitude 10° 06:16:08 10° 201° (SSW) 2,435 6.1 -8.9°
Maximum altitude 06:21:44 82° 115° (ESE) 852 3.9 -8.0°
Drops below altitude 10° 06:27:24 10° 29° (NNE) 2,470 6.3 -7.1°
Sets 06:29:51 0° 29° (NNE) 3,414 7.0 -6.7°
